• In Österreich
  • Länderverzeichnis
  • Für 7 Tage
  • Wassertemperatur
  • Satellitenkarten
  • Wetterkarte
  • News
  • Widgets
  • user-avatar
    Anmelden

    Stündliche Wetter Bourgoin

    Heute, 20 Januar, Samstag

    Zeit Temperatur Niederschläge Wind Luftdruck Luftfeuchtigkeit
    00:00 +3°C° 0 mm 1 m/S 737 mmHg 93%
    01:00 +3°C° 0 mm 1 m/S 737 mmHg 93%
    02:00 +3°C° 0 mm 1 m/S 737 mmHg 93%
    03:00 +2°C° 0 mm 1 m/S 736 mmHg 93%
    04:00 +2°C° 0,1 mm 1 m/S 736 mmHg 91%
    05:00 +2°C° 0,1 mm 2 m/S 736 mmHg 90%
    06:00 +2°C° 0 mm 2 m/S 736 mmHg 88%
    07:00 +3°C° 0,2 mm 2 m/S 735 mmHg 85%
    08:00 +3°C° 0,2 mm 2 m/S 735 mmHg 83%
    09:00 +3°C° 0,2 mm 3 m/S 734 mmHg 80%
    10:00 +3°C° 1 mm 3 m/S 733 mmHg 80%
    11:00 +4°C° 1 mm 4 m/S 732 mmHg 80%
    12:00 +4°C° 1 mm 4 m/S 731 mmHg 80%
    13:00 +4°C° 1,7 mm 4 m/S 730 mmHg 83%
    14:00 +4°C° 1,7 mm 4 m/S 730 mmHg 85%
    15:00 +3°C° 1,7 mm 5 m/S 729 mmHg 88%
    16:00 +5°C° 1,3 mm 4 m/S 729 mmHg 89%
    17:00 +5°C° 1,3 mm 4 m/S 728 mmHg 91%
    18:00 +5°C° 1,3 mm 3 m/S 728 mmHg 92%
    19:00 +7°C° 1,2 mm 3 m/S 728 mmHg 94%
    20:00 +7°C° 1,2 mm 2 m/S 729 mmHg 95%
    21:00 +7°C° 1,2 mm 2 m/S 729 mmHg 96%
    22:00 +7°C° 1,1 mm 2 m/S 729 mmHg 96%
    23:00 +8°C° 1,1 mm 2 m/S 729 mmHg 95%

    Morgen, 21 Januar, Sonntag

    Zeit Temperatur Niederschläge Wind Luftdruck Luftfeuchtigkeit
    00:00 +8°C° 1,1 mm 2 m/S 730 mmHg 95%
    01:00 +8°C° 0,6 mm 2 m/S 730 mmHg 94%
    02:00 +8°C° 0,6 mm 2 m/S 731 mmHg 94%
    03:00 +8°C° 0,6 mm 2 m/S 731 mmHg 93%
    04:00 +7°C° 0,3 mm 2 m/S 732 mmHg 93%
    05:00 +7°C° 0,3 mm 2 m/S 732 mmHg 93%
    06:00 +6°C° 0,3 mm 2 m/S 733 mmHg 93%
    07:00 +7°C° 0,8 mm 1 m/S 734 mmHg 94%
    08:00 +7°C° 0,8 mm 1 m/S 734 mmHg 95%
    09:00 +7°C° 0,8 mm 1 m/S 735 mmHg 96%
    10:00 +7°C° 1,4 mm 1 m/S 735 mmHg 95%
    11:00 +7°C° 1,4 mm 1 m/S 735 mmHg 95%
    12:00 +7°C° 1,4 mm 1 m/S 735 mmHg 95%
    13:00 +7°C° 0,5 mm 1 m/S 735 mmHg 95%
    14:00 +8°C° 0,5 mm 1 m/S 735 mmHg 94%
    15:00 +8°C° 0,5 mm 1 m/S 735 mmHg 94%
    16:00 +8°C° 0,2 mm 1 m/S 735 mmHg 93%
    17:00 +8°C° 0,2 mm 1 m/S 736 mmHg 93%
    18:00 +8°C° 0,2 mm 1 m/S 736 mmHg 93%
    19:00 +8°C° 0,3 mm 1 m/S 736 mmHg 93%
    20:00 +8°C° 0,3 mm 1 m/S 736 mmHg 92%
    21:00 +7°C° 0,3 mm 2 m/S 736 mmHg 92%
    22:00 +8°C° 0,3 mm 2 m/S 736 mmHg 93%
    23:00 +8°C° 0,3 mm 2 m/S 737 mmHg 93%

    übermorgen, 22 Januar, Montag

    Zeit Temperatur Niederschläge Wind Luftdruck Luftfeuchtigkeit
    00:00 +8°C° 0,3 mm 2 m/S 737 mmHg 94%
    01:00 +8°C° 1,8 mm 2 m/S 736 mmHg 94%
    02:00 +8°C° 1,8 mm 2 m/S 736 mmHg 95%
    03:00 +8°C° 1,8 mm 2 m/S 736 mmHg 96%
    04:00 +8°C° 2,5 mm 2 m/S 736 mmHg 95%
    05:00 +9°C° 2,5 mm 2 m/S 736 mmHg 95%
    06:00 +9°C° 2,5 mm 2 m/S 736 mmHg 95%
    07:00 +9°C° 2,3 mm 2 m/S 736 mmHg 95%
    08:00 +9°C° 2,3 mm 2 m/S 736 mmHg 96%
    09:00 +9°C° 2,3 mm 2 m/S 736 mmHg 96%
    10:00 +9°C° 1,9 mm 2 m/S 736 mmHg 95%
    11:00 +10°C° 1,9 mm 2 m/S 736 mmHg 94%
    12:00 +10°C° 1,9 mm 2 m/S 736 mmHg 94%
    13:00 +12°C° 0,8 mm 2 m/S 736 mmHg 92%
    14:00 +12°C° 0,8 mm 2 m/S 736 mmHg 91%
    15:00 +13°C° 0,8 mm 2 m/S 736 mmHg 90%
    16:00 +12°C° 0,3 mm 2 m/S 737 mmHg 90%
    17:00 +12°C° 0,3 mm 1 m/S 737 mmHg 91%
    18:00 +11°C° 0,3 mm 1 m/S 737 mmHg 91%
    19:00 +11°C° 0,6 mm 1 m/S 737 mmHg 91%
    20:00 +10°C° 0,6 mm 2 m/S 737 mmHg 91%
    21:00 +10°C° 0,6 mm 2 m/S 737 mmHg 92%
    22:00 +9°C° 0,3 mm 2 m/S 737 mmHg 92%
    23:00 +9°C° 0,3 mm 2 m/S 737 mmHg 92%

    23 Januar, Dienstag

    Zeit Temperatur Niederschläge Wind Luftdruck Luftfeuchtigkeit
    00:00 +9°C° 0,3 mm 2 m/S 737 mmHg 92%
    01:00 +9°C° 0,5 mm 2 m/S 738 mmHg 92%
    02:00 +10°C° 0,5 mm 1 m/S 738 mmHg 93%
    03:00 +10°C° 0,5 mm 1 m/S 738 mmHg 93%
    04:00 +10°C° 0,3 mm 1 m/S 738 mmHg 94%
    05:00 +9°C° 0,3 mm 2 m/S 739 mmHg 95%
    06:00 +9°C° 0,3 mm 2 m/S 739 mmHg 95%
    07:00 +9°C° 0,1 mm 2 m/S 740 mmHg 95%
    08:00 +9°C° 0,1 mm 2 m/S 740 mmHg 94%
    09:00 +9°C° 0,1 mm 3 m/S 741 mmHg 93%
    10:00 +10°C° 0,1 mm 3 m/S 741 mmHg 92%
    11:00 +10°C° 0,1 mm 3 m/S 741 mmHg 90%
    12:00 +10°C° 0,1 mm 3 m/S 741 mmHg 88%
    13:00 +10°C° 0 mm 2 m/S 741 mmHg 87%
    14:00 +10°C° 0 mm 2 m/S 741 mmHg 87%
    15:00 +10°C° 0 mm 2 m/S 741 mmHg 87%
    16:00 +10°C° 0 mm 1 m/S 742 mmHg 89%
    17:00 +9°C° 0 mm 1 m/S 742 mmHg 91%
    18:00 +8°C° 0 mm 1 m/S 742 mmHg 94%
    19:00 +7°C° 0 mm 1 m/S 743 mmHg 93%
    20:00 +7°C° 0 mm 1 m/S 743 mmHg 93%
    21:00 +6°C° 0 mm 0 m/S 743 mmHg 92%
    22:00 +7°C° 0 mm 1 m/S 743 mmHg 91%
    23:00 +7°C° 0 mm 1 m/S 743 mmHg 91%

    24 Januar, Mittwoch

    Zeit Temperatur Niederschläge Wind Luftdruck Luftfeuchtigkeit
    00:00 +6°C° 0 mm 1 m/S 743 mmHg 90%
    01:00 +6°C° 0 mm 1 m/S 743 mmHg 89%
    02:00 +6°C° 0 mm 1 m/S 743 mmHg 88%
    03:00 +6°C° 0 mm 1 m/S 743 mmHg 88%
    04:00 +6°C° 0 mm 1 m/S 743 mmHg 87%
    05:00 +6°C° 0 mm 1 m/S 743 mmHg 86%
    06:00 +6°C° 0 mm 1 m/S 744 mmHg 86%
    07:00 +7°C° 0 mm 1 m/S 744 mmHg 84%
    08:00 +7°C° 0 mm 1 m/S 744 mmHg 82%
    09:00 +8°C° 0 mm 1 m/S 744 mmHg 80%
    10:00 +9°C° 0 mm 2 m/S 744 mmHg 76%
    11:00 +10°C° 0 mm 2 m/S 743 mmHg 73%
    12:00 +13°C° 0 mm 2 m/S 743 mmHg 69%
    13:00 +13°C° 0 mm 2 m/S 742 mmHg 71%
    14:00 +13°C° 0 mm 2 m/S 742 mmHg 74%
    15:00 +12°C° 0 mm 3 m/S 742 mmHg 76%
    16:00 +12°C° 0 mm 2 m/S 742 mmHg 80%
    17:00 +9°C° 0 mm 2 m/S 742 mmHg 84%
    18:00 +8°C° 0 mm 2 m/S 742 mmHg 88%
    19:00 +8°C° 0 mm 2 m/S 742 mmHg 87%
    20:00 +7°C° 0 mm 3 m/S 743 mmHg 87%
    21:00 +7°C° 0 mm 3 m/S 743 mmHg 87%
    22:00 +7°C° 0 mm 3 m/S 742 mmHg 87%
    23:00 +7°C° 0 mm 3 m/S 742 mmHg 87%

    25 Januar, Donnerstag

    Zeit Temperatur Niederschläge Wind Luftdruck Luftfeuchtigkeit
    00:00 +7°C° 0 mm 3 m/S 742 mmHg 87%
    01:00 +5°C° 0 mm 3 m/S 742 mmHg 87%
    02:00 +5°C° 0 mm 3 m/S 742 mmHg 87%
    03:00 +5°C° 0 mm 3 m/S 741 mmHg 87%
    04:00 +5°C° 0 mm 3 m/S 741 mmHg 87%
    05:00 +6°C° 0 mm 2 m/S 741 mmHg 87%
    06:00 +6°C° 0 mm 2 m/S 741 mmHg 87%
    07:00 +7°C° 0 mm 2 m/S 740 mmHg 84%
    08:00 +8°C° 0 mm 3 m/S 740 mmHg 82%
    09:00 +8°C° 0 mm 3 m/S 740 mmHg 80%
    10:00 +10°C° 0 mm 4 m/S 739 mmHg 77%
    11:00 +11°C° 0 mm 4 m/S 738 mmHg 74%
    12:00 +13°C° 0 mm 5 m/S 738 mmHg 72%
    13:00 +13°C° 0 mm 5 m/S 737 mmHg 73%
    14:00 +12°C° 0 mm 5 m/S 737 mmHg 75%
    15:00 +12°C° 0 mm 4 m/S 736 mmHg 77%
    16:00 +11°C° 0 mm 4 m/S 736 mmHg 79%
    17:00 +10°C° 0 mm 4 m/S 735 mmHg 81%
    18:00 +8°C° 0 mm 4 m/S 735 mmHg 83%
    19:00 +8°C° 0,1 mm 4 m/S 735 mmHg 83%
    20:00 +8°C° 0,1 mm 4 m/S 735 mmHg 82%
    21:00 +8°C° 0,1 mm 4 m/S 736 mmHg 81%
    22:00 +9°C° 1 mm 3 m/S 736 mmHg 84%
    23:00 +9°C° 1 mm 3 m/S 735 mmHg 87%
    Mehr zeigen